Starlink 32911

operational
NORAD ID: 63096 Int'l Des: 2025-037 Owner: SPXS Country: US Constellation: starlink
LEOCIRCULAR

About Starlink 32911

Description loading...

Live Position

Loading 3D Globe...

Upcoming Passes

Altitude History

Altitude vs Time

uPlot chart will show altitude changes over time

Two-Line Element Set

1 63096U 25037V 25305.41869297 .00000571 00000-0 55655-4 0 9995
2 63096 70.0009 318.0570 0003050 270.9122 89.1688 14.98329925 39382
Epoch: Nov 1, 2025 • Age: 24 hours

Current Status

Altitude 591.2 km
Velocity 7.56 km/s
Sub-Earth Point -55.75°S, 94.38°E
Launch Date Feb 23, 2025
Age 0.6 years
Type internet

Technical Details

Classification Payload
Mass 730.00 kg
Dry Mass 700.00 kg
Total Mass 730.00 kg
Length 0.30 m
Diameter 4.10 m
Span 29.00 m
Shape Box + pan
Manufacturer SPXS
Bus Type Starlink V2M
Phase Status In Orbit
Owner/State SPXS/US

Large Constellations

Loading constellations...